Location: Lake Almanor
(40.2485°N, 121.1442°W)
Time: 02:52:52
(UTC-08:00)

STARLINK-1095 - Pass Details

Date: 04 February 2020
Orbit: 348 x 351 km, 53.0° (Epoch: 18 February)

Event Time Altitude Azimuth Distance (km) Brightness Sun altitude
Rises 18:19:49 0° 293° (WNW) 2,155 7.6 -10.6°
Reaches altitude 10° 18:22:21 10° 269° (W) 1,308 7.0 -11.1°
Maximum altitude 18:24:10 15° 231° (SW) 1,044 6.0 -11.4°
Drops below altitude 10° 18:25:58 10° 192° (SSW) 1,302 5.8 -11.7°
Sets 18:28:30 0° 168° (SSE) 2,138 6.6 -12.2°
